Voltar ao catálogo

KUIPER-00165

AtivoComunicaçõesLEO
NORAD 65778·PAYLOAD·🇺🇸 United States

Lançado Sep 25, 2025 de Cape Canaveral Space Force Station

Loading…

Próximas Passagens (próximas 24 horas)

TLE

AtualizadoSource: CelesTrak SupGP

Época: Sep 14, 2026, 19:36 UTC

1 65778C 25217S   26257.81736111  .00000246  00000+0  32289-4 0  2576
2 65778  51.8992 279.2822 0000855 139.6401 268.0794 14.79849681    17

Acompanhe KUIPER-00165 em tempo real com AllMySat

Download on the App Store